Location: Armidale
(30.5016°S, 151.6662°E)
Time: 07:37:37
(UTC+10:00)

N. Korean satellite - Pass Details

Date: 22 May 2021
Orbit: 450 x 500 km, 97.2° (Epoch: 18 June)

Event Time Altitude Azimuth Distance (km) Brightness Sun altitude
Rises 17:36:43 0° 181° (S) 2,625 10.1 -7.5°
Reaches altitude 10° 17:38:58 10° 190° (S) 1,730 9.3 -8.0°
Maximum altitude 17:42:19 32° 254° (WSW) 880 8.5 -8.6°
Drops below altitude 10° 17:45:36 10° 318° (NW) 1,694 10.3 -9.3°
Sets 17:47:47 0° 328° (NNW) 2,561 11.1 -9.8°
